time_stamp(utc),avg(mph),gust(mph),direction(deg),12m_air_temp(f),sonic_u(cm/s),sonic_v(cm/s),sonic_w(cm/s),pressure,2m_air_temp(f),pyranometer(W/m^2)
"2018-03-30 00:02:58+00",7.8,9.8,,46.1,228,-251,0,1010.93,45.9,0
"2018-03-30 00:07:58+00",9.2,10.2,,46.5,240,-317,-10,1010.83,46.1,0
"2018-03-30 00:12:58+00",10.5,12.5,,46.9,227,-401,-5,1010.72,46.4,0
"2018-03-30 00:17:58+00",10.5,11.5,,47.1,226,-395,2,1010.72,46.7,0
"2018-03-30 00:22:58+00",8.6,9.6,,47.2,142,-342,2,1011,46.8,0
"2018-03-30 00:27:58+00",8.3,9.3,,47.5,97,-334,-6,1010.98,47,0
"2018-03-30 00:32:58+00",7.1,8.1,,47.5,88,-281,2,1010.82,47.1,0
"2018-03-30 00:37:58+00",6.7,8.7,,47.5,51,-281,-10,1010.85,47.1,0
"2018-03-30 00:42:58+00",7.0,7.0,,47.4,46,-293,-14,1010.72,47,0
"2018-03-30 00:47:58+00",7.0,7.0,,47.1,57,-284,-12,1010.78,46.8,0
"2018-03-30 00:52:58+00",7.4,8.4,,47,57,-304,-10,1010.58,46.6,0
"2018-03-30 00:57:58+00",5.0,6.0,,46.9,6,-207,-11,1010.64,46.5,0
"2018-03-30 01:02:58+00",5.3,6.3,,47,9,-217,-7,1010.57,46.6,0
"2018-03-30 01:07:58+00",5.6,6.6,,47.1,28,-228,-4,1010.57,46.6,0
"2018-03-30 01:12:58+00",5.7,6.7,,47,22,-237,-9,1010.6,46.6,0
"2018-03-30 01:17:58+00",6.5,7.5,,47.2,37,-276,-13,1010.55,46.7,0
"2018-03-30 01:22:58+00",6.7,7.7,,47.2,53,-275,-12,1010.52,46.6,0
"2018-03-30 01:27:58+00",7.7,8.7,,47.2,91,-313,-6,1010.33,46.6,0
"2018-03-30 01:32:58+00",7.5,8.5,,47.4,44,-314,-8,1010.29,46.8,0
"2018-03-30 01:37:58+00",7.1,8.1,,47.4,52,-296,-16,1010.16,46.9,0
"2018-03-30 01:42:58+00",7.9,8.9,,47.4,49,-331,-7,1010.22,46.9,0
"2018-03-30 01:47:58+00",7.9,9.9,,47.4,33,-328,-13,1010.07,46.9,0
"2018-03-30 01:52:58+00",8.3,9.3,,47.5,68,-344,-15,1010.06,47,0
"2018-03-30 01:57:58+00",9.2,11.2,,47.7,64,-388,-19,1009.94,47.1,0
"2018-03-30 02:02:58+00",10.4,13.4,,48.1,42,-435,-24,1009.84,47.3,0
"2018-03-30 02:07:58+00",12.0,14.0,,49.1,-82,-505,-24,1009.66,48.1,0
"2018-03-30 02:12:58+00",12.1,16.1,,50,-86,-512,-10,1009.73,49.2,0
"2018-03-30 02:17:58+00",11.6,14.6,,50,-150,-455,-9,1009.71,49.6,0
"2018-03-30 02:22:58+00",12.3,15.3,,50.1,-167,-503,6,1009.79,49.7,0
"2018-03-30 02:27:58+00",14.5,18.5,,50.5,-233,-580,1,1009.66,49.8,0
"2018-03-30 02:32:58+00",15.0,18.0,,51,-262,-597,1,1009.6,50.3,0
"2018-03-30 02:37:58+00",17.2,20.2,,51.5,-291,-684,-1,1009.44,50.8,0
"2018-03-30 02:42:58+00",14.7,19.7,,51.6,-200,-604,-5,1009.29,50.9,0
"2018-03-30 02:47:58+00",16.0,18.0,,51.9,-304,-629,7,1009.16,51.2,0
"2018-03-30 02:52:58+00",14.5,16.5,,52,-366,-546,10,1009.39,51.2,0
"2018-03-30 02:57:58+00",14.9,18.9,,52,-377,-559,13,1009.07,51.3,0
"2018-03-30 03:02:58+00",15.8,17.8,,52.2,-420,-578,2,1008.66,51.4,0
"2018-03-30 03:07:58+00",17.3,21.3,,52,-377,-660,8,1008.35,51.4,0
"2018-03-30 03:12:58+00",18.8,21.8,,52,-420,-720,-4,1008.68,51.3,0
"2018-03-30 03:17:58+00",19.2,22.2,,51.8,-468,-720,6,1008.52,51.2,0
"2018-03-30 03:22:58+00",17.5,19.5,,51.3,-479,-642,23,1008.79,50.9,0
"2018-03-30 03:27:58+00",18.5,22.5,,51.1,-455,-693,4,1008.71,50.6,0
"2018-03-30 03:32:58+00",18.3,20.3,,50.9,-378,-707,1,1008.66,50.4,0
"2018-03-30 03:37:58+00",17.5,19.5,,50.7,-321,-683,-8,1008.5,50.2,0
"2018-03-30 03:42:58+00",17.3,20.3,,50.9,-338,-666,-11,1008.5,50.3,0
"2018-03-30 03:47:58+00",16.3,18.3,,51.1,-317,-630,-11,1008.42,50.4,0
"2018-03-30 03:52:58+00",16.0,19.0,,51.1,-224,-656,-7,1008.32,50.6,0
"2018-03-30 03:57:58+00",19.1,23.1,,51.2,-340,-756,-2,1008.5,50.6,0
"2018-03-30 04:02:58+00",16.2,19.2,,51,-317,-627,-1,1008.5,50.5,0
"2018-03-30 04:07:58+00",15.8,18.8,,51,-279,-628,-5,1008.24,50.5,0
"2018-03-30 04:12:58+00",15.6,18.6,,51,-227,-634,-15,1008.2,50.4,0
"2018-03-30 04:17:58+00",15.2,18.2,,50.8,-243,-609,4,1008.23,50.3,0
"2018-03-30 04:22:58+00",13.8,15.8,,50.9,-248,-542,3,1008.08,50.4,0
"2018-03-30 04:27:58+00",13.0,14.0,,51.2,-294,-492,-3,1008.25,50.5,0
"2018-03-30 04:32:58+00",14.6,16.6,,52,-408,-522,2,1008.37,50.9,0
"2018-03-30 04:37:58+00",16.4,18.4,,52.8,-504,-545,10,1008.33,51.7,0
"2018-03-30 04:42:58+00",19.6,22.6,,53.6,-590,-667,-5,1008.12,52.4,0
"2018-03-30 04:47:58+00",18.3,21.3,,53.8,-539,-635,11,1008.01,52.7,0
"2018-03-30 04:52:58+00",17.9,21.9,,54.1,-576,-567,34,1008.27,53,0
"2018-03-30 04:57:58+00",19.4,22.4,,54.2,-616,-625,10,1008.09,53.2,0
"2018-03-30 05:02:58+00",18.9,20.9,,54.1,-584,-632,13,1007.95,53.1,0
"2018-03-30 05:07:58+00",18.2,21.2,,54,-585,-560,25,1008.21,53.1,0
"2018-03-30 05:12:58+00",18.8,21.8,,54.1,-566,-640,1,1008.12,53.1,0
"2018-03-30 05:17:58+00",19.1,20.1,,54.3,-585,-642,7,1008.26,53.2,0
"2018-03-30 05:22:58+00",19.3,22.3,,54.2,-574,-674,19,1008.21,53.2,0
"2018-03-30 05:27:58+00",17.9,20.9,,53.8,-565,-585,8,1008.29,53,0
"2018-03-30 05:32:58+00",17.6,19.6,,53.6,-542,-586,15,1008.22,52.8,0
"2018-03-30 05:37:58+00",17.9,20.9,,53.3,-548,-596,-1,1008.12,52.6,0
"2018-03-30 05:42:58+00",18.1,21.1,,53.1,-552,-617,14,1008.21,52.4,0
"2018-03-30 05:47:58+00",18.4,20.4,,53.1,-536,-644,4,1008.02,52.3,0
"2018-03-30 05:52:58+00",17.9,21.9,,53.2,-483,-658,8,1007.94,52.4,0
"2018-03-30 05:57:58+00",20.0,23.0,,53.6,-551,-724,-11,1007.89,52.6,0
"2018-03-30 06:02:58+00",21.2,24.2,,53.9,-596,-765,6,1007.9,52.9,0
"2018-03-30 06:07:58+00",20.1,23.1,,53.9,-589,-706,0,1007.83,53,0
"2018-03-30 06:12:58+00",19.0,22.0,,54,-538,-681,13,1007.6,53.1,0
"2018-03-30 06:17:58+00",20.9,23.9,,54.5,-575,-766,17,1007.71,53.5,0
"2018-03-30 06:22:58+00",18.5,19.5,,53.8,-414,-706,7,1007.84,53.3,0
"2018-03-30 06:27:58+00",19.5,24.5,,52.9,-437,-739,-10,1007.67,52.4,0
"2018-03-30 06:32:58+00",19.5,21.5,,52.6,-372,-761,-3,1007.6,52.1,0
"2018-03-30 06:37:58+00",20.7,25.7,,52.5,-409,-801,-4,1007.66,51.9,0
"2018-03-30 06:42:58+00",21.3,24.3,,52.4,-454,-813,-10,1007.63,51.8,0
"2018-03-30 06:47:58+00",19.2,22.2,,52.3,-338,-760,-2,1007.47,51.8,0
"2018-03-30 06:52:58+00",21.9,25.9,,52.4,-406,-859,-3,1007.41,51.8,0
"2018-03-30 06:57:58+00",22.0,25.0,,52.4,-428,-855,-1,1007.32,51.9,0
"2018-03-30 07:02:58+00",20.2,24.2,,52.4,-397,-795,19,1007.29,51.9,0
"2018-03-30 07:07:58+00",23.7,26.7,,52.5,-464,-918,-10,1007.47,51.9,0
"2018-03-30 07:12:58+00",20.9,23.9,,52.3,-424,-808,9,1007.45,51.8,0
"2018-03-30 07:17:58+00",21.8,25.8,,52,-437,-836,-12,1007.32,51.6,0
"2018-03-30 07:22:58+00",19.4,23.4,,51.9,-368,-760,11,1007.24,51.5,0
"2018-03-30 07:27:58+00",22.4,26.4,,51.8,-422,-871,11,1007.27,51.3,0
"2018-03-30 07:32:58+00",22.9,24.9,,51.7,-394,-901,-19,1007.21,51.3,0
"2018-03-30 07:37:58+00",22.1,25.1,,51.7,-398,-872,1,1007.13,51.2,0
"2018-03-30 07:42:58+00",22.7,28.7,,51.7,-422,-884,-9,1006.97,51.2,0
"2018-03-30 07:47:58+00",22.0,25.0,,51.6,-395,-866,-9,1006.74,51.2,0
"2018-03-30 07:52:58+00",21.4,25.4,,51.5,-433,-824,-5,1006.81,51.1,0
"2018-03-30 07:57:58+00",20.7,23.7,,51.4,-431,-797,1,1006.83,51,0
"2018-03-30 08:02:58+00",21.5,25.5,,51.4,-490,-816,-5,1007.02,50.9,0
"2018-03-30 08:07:58+00",19.6,22.6,,51.3,-469,-746,19,1006.88,50.9,0
"2018-03-30 08:12:58+00",20.6,22.6,,51.3,-449,-787,-8,1006.97,50.8,0
"2018-03-30 08:17:58+00",19.4,23.4,,51.3,-467,-736,10,1006.95,50.8,0
"2018-03-30 08:22:58+00",18.5,21.5,,51.4,-440,-701,14,1006.92,50.9,0
"2018-03-30 08:27:58+00",18.0,22.0,,51.5,-423,-678,0,1006.97,50.8,0
"2018-03-30 08:32:58+00",17.7,20.7,,51.3,-460,-652,13,1007.15,50.8,0
"2018-03-30 08:37:58+00",16.1,18.1,,51.7,-441,-590,28,1007.27,51.1,0
"2018-03-30 08:42:58+00",19.1,23.1,,51.9,-569,-653,22,1007.41,51.2,0
"2018-03-30 08:47:58+00",19.5,22.5,,51.7,-584,-678,15,1007.36,51.2,0
"2018-03-30 08:52:58+00",20.9,23.9,,51.6,-608,-733,12,1007.21,51.1,0
"2018-03-30 08:57:58+00",19.7,22.7,,51.4,-591,-673,14,1007.05,50.9,0
"2018-03-30 09:02:58+00",17.9,19.9,,51.4,-517,-631,18,1007.04,50.9,0
"2018-03-30 09:07:58+00",18.3,20.3,,51.4,-558,-617,6,1006.97,50.8,0
"2018-03-30 09:12:58+00",18.3,21.3,,51.3,-583,-582,-7,1007.21,50.8,0
"2018-03-30 09:17:58+00",17.1,19.1,,51.2,-552,-508,11,1007.24,50.7,0
"2018-03-30 09:22:58+00",16.3,19.3,,51,-515,-519,-1,1007.23,50.6,0
"2018-03-30 09:27:58+00",17.2,19.2,,51,-552,-533,7,1007.2,50.4,0
"2018-03-30 09:32:58+00",17.6,21.6,,50.9,-562,-550,10,1007.06,50.4,0
"2018-03-30 09:37:58+00",16.5,19.5,,50.7,-522,-535,11,1006.99,50.2,0
"2018-03-30 09:42:58+00",16.6,18.6,,50.7,-517,-552,6,1006.92,50.2,0
"2018-03-30 09:47:58+00",15.2,17.2,,50.4,-466,-522,17,1006.93,50,0
"2018-03-30 09:52:58+00",18.4,20.4,,50.5,-576,-606,2,1007.24,50,0
"2018-03-30 09:57:58+00",17.7,19.7,,50.5,-546,-599,-2,1007.04,50,0
"2018-03-30 10:02:58+00",17.3,20.3,,50.5,-510,-601,15,1006.81,50,0
"2018-03-30 10:07:58+00",16.8,18.8,,50.5,-465,-613,18,1007.01,49.9,0
"2018-03-30 10:12:58+00",15.1,18.1,,50.5,-450,-529,12,1006.95,50,0
"2018-03-30 10:17:58+00",15.8,17.8,,50.3,-445,-568,8,1006.9,49.9,0
"2018-03-30 10:22:58+00",15.5,18.5,,50.3,-445,-553,19,1006.87,49.8,0
"2018-03-30 10:27:58+00",18.0,20.0,,50.3,-449,-673,2,1006.69,49.9,0
"2018-03-30 10:32:58+00",19.3,21.3,,50.3,-501,-710,-4,1006.65,49.8,0
"2018-03-30 10:37:58+00",18.5,21.5,,50.2,-471,-690,12,1006.72,49.7,0
"2018-03-30 10:42:58+00",17.6,19.6,,50,-464,-648,12,1006.99,49.6,0
"2018-03-30 10:47:58+00",18.4,20.4,,50,-533,-644,-1,1007.2,49.6,0
"2018-03-30 10:52:58+00",18.4,20.4,,49.9,-545,-634,10,1007.37,49.5,0
"2018-03-30 10:57:58+00",17.7,19.7,,49.8,-549,-589,24,1007.47,49.4,0
"2018-03-30 11:02:58+00",16.6,18.6,,49.7,-520,-548,15,1007.34,49.3,0
"2018-03-30 11:07:58+00",16.1,18.1,,49.3,-485,-549,21,1007.31,49,0
"2018-03-30 11:12:58+00",17.8,19.8,,49.2,-472,-643,13,1007.49,48.8,0
"2018-03-30 11:17:58+00",14.2,16.2,,49.1,-359,-528,15,1007.33,48.7,0
"2018-03-30 11:22:58+00",16.4,18.4,,49,-408,-607,7,1007.21,48.6,0
"2018-03-30 11:27:58+00",15.1,17.1,,49,-407,-536,3,1007.1,48.6,0
"2018-03-30 11:32:58+00",16.3,19.3,,49.1,-440,-588,5,1007.24,48.6,0
"2018-03-30 11:37:58+00",16.0,18.0,,48.9,-419,-578,3,1007.19,48.4,0
"2018-03-30 11:42:58+00",14.0,16.0,,48.8,-333,-521,7,1007.06,48.3,0
"2018-03-30 11:47:58+00",14.1,15.1,,48.8,-282,-530,8,1007.12,48.3,0
"2018-03-30 11:52:58+00",12.7,13.7,,48.9,-219,-495,-2,1006.95,48.4,0
"2018-03-30 11:57:58+00",17.8,19.8,,49.1,-334,-671,-3,1007.08,48.7,0
"2018-03-30 12:02:58+00",15.9,17.9,,48.8,-340,-584,7,1007.18,48.4,0
"2018-03-30 12:07:58+00",13.3,15.3,,48.7,-334,-485,3,1007.05,48.2,0
"2018-03-30 12:12:58+00",14.0,16.0,,49.2,-426,-461,7,1007.03,48.6,0
"2018-03-30 12:17:58+00",14.9,16.9,,49.1,-393,-535,7,1007.12,48.6,0
"2018-03-30 12:22:58+00",10.5,12.5,,48.9,-248,-390,7,1007.32,48.5,0.2
"2018-03-30 12:27:58+00",13.3,17.3,,49.2,-163,-540,9,1007.12,48.8,0
"2018-03-30 12:32:58+00",17.4,20.4,,49.4,-304,-673,2,1006.95,48.9,0
"2018-03-30 12:37:58+00",19.4,21.4,,49,-289,-764,-2,1007.09,48.6,0
"2018-03-30 12:42:58+00",19.6,20.6,,49,-368,-737,-9,1007.15,48.5,0
"2018-03-30 12:47:58+00",17.8,19.8,,49.7,-487,-640,12,1007.01,49,0
"2018-03-30 12:52:58+00",19.7,22.7,,50.3,-553,-691,16,1006.87,49.6,0
"2018-03-30 12:57:58+00",17.1,19.1,,49.6,-474,-597,17,1006.89,49.1,0.3
"2018-03-30 13:02:58+00",17.5,19.5,,49.7,-501,-605,19,1006.82,49.2,7.4
"2018-03-30 13:07:58+00",17.5,19.5,,49.7,-532,-585,18,1006.98,49.1,0.1
"2018-03-30 13:12:58+00",16.7,18.7,,50,-519,-536,7,1006.95,49.3,2
"2018-03-30 13:17:58+00",15.9,17.9,,50.2,-499,-506,5,1006.95,49.5,3.2
"2018-03-30 13:22:58+00",15.0,17.0,,50.1,-459,-491,0,1006.79,49.6,24.8
"2018-03-30 13:27:58+00",15.0,19.0,,50,-479,-451,6,1006.77,49.6,31.1
"2018-03-30 13:32:58+00",15.0,17.0,,49.9,-491,-424,4,1006.89,49.5,26.4
"2018-03-30 13:37:58+00",15.2,17.2,,49.9,-470,-499,8,1006.57,49.6,32
"2018-03-30 13:42:58+00",14.3,16.3,,50.1,-436,-476,11,1006.7,49.8,54.9
"2018-03-30 13:47:58+00",13.1,15.1,,50.5,-362,-464,7,1006.66,50.2,65.1
"2018-03-30 13:52:58+00",14.4,16.4,,50.7,-358,-531,4,1006.76,50.5,60.2
"2018-03-30 13:57:58+00",10.9,12.9,,50.6,-291,-395,3,1006.62,50.6,71.3
"2018-03-30 14:02:58+00",14.0,16.0,,50.8,-402,-491,8,1006.86,50.8,74.1
"2018-03-30 14:07:58+00",16.0,18.0,,51.1,-459,-559,4,1006.85,51.1,137.7
"2018-03-30 14:12:58+00",12.4,14.4,,51.5,-322,-451,18,1007.04,51.5,115.3
"2018-03-30 14:17:58+00",13.7,16.7,,51.6,-416,-458,18,1007.09,51.8,180.6
"2018-03-30 14:22:58+00",18.6,21.6,,51.8,-571,-625,-2,1006.89,51.9,116.7
"2018-03-30 14:27:58+00",18.3,20.3,,51.6,-577,-576,9,1006.9,51.9,176.3
"2018-03-30 14:32:58+00",15.2,18.2,,51.4,-474,-502,4,1007.08,51.8,119.3
"2018-03-30 14:37:58+00",15.0,18.0,,51.3,-477,-471,22,1007.03,51.8,108.3
"2018-03-30 14:42:58+00",15.3,17.3,,50.9,-469,-520,17,1007.12,51.5,82.3
"2018-03-30 14:47:58+00",15.9,18.9,,50.9,-422,-580,10,1007.09,51.3,71.2
"2018-03-30 14:52:58+00",19.1,23.1,,51.6,-523,-684,1,1007.18,51.7,133
"2018-03-30 14:57:58+00",20.6,22.6,,51.7,-582,-738,-2,1007.11,51.9,104.1
"2018-03-30 15:02:58+00",16.5,19.5,,51.4,-420,-615,0,1007.03,51.7,77.8
"2018-03-30 15:07:58+00",17.0,20.0,,51.7,-388,-647,-3,1006.95,51.8,64.2
"2018-03-30 15:12:58+00",16.8,18.8,,52,-488,-598,1,1006.85,52.1,62.7
"2018-03-30 15:17:58+00",17.4,21.4,,52.2,-462,-646,16,1006.85,52.2,90.4
"2018-03-30 15:22:58+00",14.6,17.6,,52.4,-426,-515,14,1006.81,52.5,100.6
"2018-03-30 15:27:58+00",16.4,18.4,,52.6,-406,-611,-8,1006.85,52.8,82.8
"2018-03-30 15:32:58+00",15.5,17.5,,52.9,-466,-533,2,1006.67,53.1,115
"2018-03-30 15:37:58+00",14.3,18.3,,53,-354,-538,20,1006.77,53.2,77.4
"2018-03-30 15:42:58+00",18.3,20.3,,52.9,-418,-693,13,1006.89,53.3,163.5
"2018-03-30 15:47:58+00",15.7,17.7,,53.2,-264,-622,-1,1006.71,53.7,255
"2018-03-30 15:52:58+00",17.7,19.7,,53.2,-479,-636,-18,1006.66,53.9,185.9
"2018-03-30 15:57:58+00",16.4,20.4,,53.6,-456,-592,24,1006.39,54.2,280
"2018-03-30 16:02:58+00",14.0,18.0,,53.6,-438,-461,33,1005.9,54.7,341.6
"2018-03-30 16:07:58+00",13.7,16.7,,53.3,-477,-364,49,1005.69,54.8,376.9
"2018-03-30 16:12:58+00",14.3,16.3,,53.3,-515,-352,14,1005.45,54.8,314.7
"2018-03-30 16:17:58+00",15.8,16.8,,53.7,-419,-574,-7,1005.89,55.3,351
"2018-03-30 16:22:58+00",17.4,20.4,,54.5,-356,-666,-4,1006.16,55.6,217.4
"2018-03-30 16:27:58+00",19.6,23.6,,55,-358,-761,-11,1006.16,55.7,135.5
"2018-03-30 16:32:58+00",11.3,13.3,,56,-116,-452,5,1006.08,56.3,124.3
"2018-03-30 16:37:58+00",12.8,15.8,,55.4,-149,-533,2,1005.91,56.1,150.1
"2018-03-30 16:42:58+00",16.7,19.7,,56.2,-295,-655,-7,1005.87,56.8,183.7
"2018-03-30 16:47:58+00",16.1,18.1,,56.1,-276,-633,1,1006.03,56.9,127.6
"2018-03-30 16:52:58+00",14.9,17.9,,55.3,-201,-608,4,1006.02,56.3,163.1
"2018-03-30 16:57:58+00",19.1,22.1,,55,-356,-740,-10,1005.96,55.8,122.9
"2018-03-30 17:02:58+00",15.1,18.1,,55.4,-362,-573,21,1005.96,56,109.7
"2018-03-30 17:07:58+00",15.2,18.2,,55.6,-370,-573,13,1005.94,56.3,114.4
"2018-03-30 17:12:58+00",17.1,19.1,,56,-441,-634,9,1005.89,56.5,109.5
"2018-03-30 17:17:58+00",16.5,18.5,,56.6,-446,-605,-5,1005.79,57,160.2
"2018-03-30 17:22:58+00",14.4,16.4,,57,-346,-538,6,1005.74,57.6,138.1
"2018-03-30 17:27:58+00",15.2,17.2,,57.5,-331,-583,-2,1005.63,58.1,177.9
"2018-03-30 17:32:58+00",14.9,16.9,,58.2,-329,-569,4,1005.58,58.8,181.6
"2018-03-30 17:37:58+00",12.8,15.8,,58.6,-256,-497,0,1005.46,59.3,153.8
"2018-03-30 17:42:58+00",13.7,16.7,,58.7,-291,-526,-8,1005.27,59.4,154.5
"2018-03-30 17:47:58+00",13.8,15.8,,58.8,-285,-529,-5,1005.17,59.5,155.1
"2018-03-30 17:52:58+00",11.0,13.0,,59.1,-212,-431,17,1005,59.9,192.4
"2018-03-30 17:57:58+00",9.5,12.5,,59.5,-145,-370,21,1004.88,60.3,168.7
"2018-03-30 18:02:58+00",12.2,15.2,,58.2,-152,-497,2,1004.93,59.7,250.9
"2018-03-30 18:07:58+00",11.5,14.5,,58.1,-137,-477,-3,1004.84,59.4,139.3
"2018-03-30 18:12:58+00",13.7,15.7,,57.8,-226,-546,-6,1004.79,58.9,266.2
"2018-03-30 18:17:58+00",11.9,12.9,,57.8,-208,-463,0,1004.79,58.9,165.7
"2018-03-30 18:22:58+00",11.5,13.5,,57.3,-214,-445,-2,1004.79,58.5,160.2
"2018-03-30 18:27:58+00",10.0,13.0,,57.6,-138,-402,2,1004.73,58.6,151
"2018-03-30 18:32:58+00",11.2,14.2,,57.9,-211,-442,8,1004.76,58.8,222.2
"2018-03-30 18:37:58+00",10.4,14.4,,58,-126,-428,16,1004.6,59.1,243.5
"2018-03-30 18:42:58+00",11.6,15.6,,57.6,-92,-485,3,1004.4,58.9,232
"2018-03-30 18:47:58+00",13.8,15.8,,56.5,-166,-562,-20,1004.5,58,230.1
"2018-03-30 18:52:58+00",15.2,17.2,,56.5,-246,-606,-7,1004.49,57.8,175.8
"2018-03-30 18:57:58+00",11.8,14.8,,56.5,-171,-476,9,1004.54,57.7,189.7
"2018-03-30 19:02:58+00",9.5,12.5,,56.9,-131,-390,9,1004.48,58,179.2
"2018-03-30 19:07:58+00",13.3,14.3,,57,-142,-552,-8,1004.27,58.3,203.2
"2018-03-30 19:12:58+00",13.4,17.4,,57.1,-198,-545,1,1004.06,58.4,199.1
"2018-03-30 19:17:58+00",14.5,17.5,,57.6,-218,-586,3,1003.89,58.8,174.7
"2018-03-30 19:22:58+00",13.5,15.5,,58.5,-304,-516,7,1004.19,59.5,190.8
"2018-03-30 19:27:58+00",12.0,13.0,,59,-240,-468,4,1004.12,60,187.5
"2018-03-30 19:32:58+00",12.5,16.5,,59,-182,-512,0,1004.02,60.2,186.7
"2018-03-30 19:37:58+00",16.3,18.3,,58.9,-257,-656,-9,1003.89,60,179.4
"2018-03-30 19:42:58+00",16.8,19.8,,58.8,-251,-684,-12,1003.85,59.8,105.5
"2018-03-30 19:47:58+00",17.5,20.5,,58.2,-687,-347,24,1004.89,59,0
"2018-03-30 19:52:58+00",24.1,30.1,,56.5,25,1846,1061,1005.74,56.4,0.8
"2018-03-30 19:57:58+00",31.2,38.2,,57.8,-1220,875,-22,1005.65,56.5,2
"2018-03-30 20:02:58+00",32.1,35.1,,57.6,-1151,1168,-43,1005.9,56.5,49.1
"2018-03-30 20:07:58+00",22.4,26.4,,57,-694,719,71,1005.96,56.2,43.6
"2018-03-30 20:12:58+00",20.0,24.0,,57.8,-368,796,50,1005.65,56.9,89.9
"2018-03-30 20:37:58+00",15.4,17.4,,57.5,20000,0,-1,1006.09,57.2,-0.1
"2018-03-30 20:42:58+00",16.4,18.4,,57.2,1418,-2239,1646,1006.38,56.9,0
"2018-03-30 20:47:58+00",20.1,23.1,,56.8,513,-679,900,1006.52,56.5,0
"2018-03-30 20:52:58+00",18.8,22.8,,56.1,-327,758,62,1006.81,56,0
"2018-03-30 20:57:58+00",15.5,17.5,,55.5,-364,587,47,1007.02,55.5,0
"2018-03-30 21:02:58+00",17.3,19.3,,55.4,-330,683,52,1007.04,55.1,0
"2018-03-30 21:07:58+00",19.4,22.4,,55,-470,717,61,1007.45,54.7,0
"2018-03-30 21:12:58+00",13.0,15.0,,54.7,-302,469,37,1007.52,54.4,0
"2018-03-30 21:17:58+00",20.6,22.6,,54.4,-560,767,26,1007.8,54.1,0
"2018-03-30 21:22:58+00",21.2,26.2,,53.7,-665,741,31,1007.95,53.6,0
"2018-03-30 21:27:58+00",22.3,25.3,,53.2,-1101,1559,-432,1007.99,52.9,0
"2018-03-30 21:32:58+00",20.2,23.2,,53.2,-486,740,26,1008.26,52.8,0
"2018-03-30 22:37:58+00",15.5,17.5,,51.5,20000,0,-1,1009.75,51.4,-0.1
"2018-03-30 22:42:58+00",23.0,25.0,,50.6,262,-953,1014,1009.71,50.6,0
"2018-03-30 22:47:58+00",21.8,23.8,,50.5,20000,0,-1,1009.79,50.4,-0.1
"2018-03-30 22:52:58+00",22.2,25.2,,50.3,-343,370,292,1010.28,50.2,0
"2018-03-30 22:57:58+00",19.4,22.4,,50,-517,679,71,1010.51,49.8,0
"2018-03-30 23:02:58+00",17.5,21.5,,49.7,-472,604,69,1010.68,49.5,0
"2018-03-30 23:07:58+00",15.1,18.1,,49.5,-371,534,54,1010.73,49.3,0
"2018-03-30 23:12:58+00",17.3,19.3,,49.5,-416,632,49,1010.67,49.2,0
"2018-03-30 23:17:58+00",17.0,19.0,,49.4,-396,620,50,1010.73,49.1,0
"2018-03-30 23:22:58+00",12.1,14.1,,49.2,-304,433,35,1010.73,49,0
"2018-03-30 23:27:58+00",11.7,12.7,,49.1,-261,439,56,1010.66,48.9,0
"2018-03-30 23:32:58+00",12.6,14.6,,49.1,-266,473,42,1010.68,48.8,0
"2018-03-30 23:37:58+00",14.1,18.1,,49.2,-291,534,33,1010.89,48.8,0
"2018-03-30 23:42:58+00",15.2,17.2,,49.3,-359,546,41,1011.11,48.8,0
